CW9878 Weather Reports


time (UTC)temp
C
wind
direction
speed
KPH
gust
KPH
rain 1hr
cm
rain 24hr
cm
rain mn
cm
humidity
%
barometer
mb
20240527185816 27 269 8.0 32.2 0.00 0.00 0.00 9 1025.5
20240527185318 27 227 9.7 32.2 0.00 0.00 0.00 10 1025.6
20240527184820 27 270 14.5 24.1 0.00 0.00 0.00 9 1025.7
20240527184329 26 312 11.3 19.3 0.00 0.00 0.00 9 1025.6
20240527183811 26 315 4.8 20.9 0.00 0.00 0.00 9 1025.7
20240527183313 27 254 8.0 25.7 0.00 0.00 0.00 9 1025.7
20240527182814 26 281 11.3 29.0 0.00 0.00 0.00 10 1025.8
20240527182322 26 273 12.9 30.6 0.00 0.00 0.00 9 1025.8
20240527181851 26 263 14.5 30.6 0.00 0.00 0.00 9 1025.8
20240527181312 26 280 14.5 29.0 0.00 0.00 0.00 9 1025.8
20240527180814 26 296 12.9 25.7 0.00 0.00 0.00 9 1026.0
20240527180316 26 291 9.7 27.4 0.00 0.00 0.00 8 1025.9
20240527175845 26 241 9.7 27.4 0.00 0.00 0.00 9 1026.0
20240527175332 26 254 9.7 30.6 0.00 0.00 0.00 8 1026.1
20240527174834 26 329 8.0 30.6 0.00 0.00 0.00 8 1026.1
20240527174322 26 290 9.7 35.4 0.00 0.00 0.00 9 1026.0
20240527173824 26 277 8.0 35.4 0.00 0.00 0.00 9 1026.2
20240527173326 26 237 9.7 35.4 0.00 0.00 0.00 8 1026.4
20240527172836 26 227 8.0 22.5 0.00 0.00 0.00 9 1026.3
20240527172317 25 251 8.0 29.0 0.00 0.00 0.00 9 1026.3
20240527171819 25 304 16.1 29.0 0.00 0.00 0.00 9 1026.2
20240527171348 26 327 12.9 22.5 0.00 0.00 0.00 9 1026.3
20240527170835 26 244 11.3 20.9 0.00 0.00 0.00 9 1026.3
20240527170317 25 336 8.0 27.4 0.00 0.00 0.00 9 1026.1
20240527165818 25 327 12.9 35.4 0.00 0.00 0.00 10 1026.3
20240527165326 25 340 16.1 35.4 0.00 0.00 0.00 9 1026.0
20240527164828 25 336 12.9 33.8 0.00 0.00 0.00 10 1026.1
20240527164337 25 333 16.1 27.4 0.00 0.00 0.00 9 1026.1
20240527163817 25 333 12.9 27.4 0.00 0.00 0.00 10 1026.3
20240527163346 25 272 12.9 27.4 0.00 0.00 0.00 10 1026.2
20240527162836 25 360 8.0 22.5 0.00 0.00 0.00 10 1026.2
20240527162316 25 234 8.0 24.1 0.00 0.00 0.00 10 1026.3
20240527161818 25 252 6.4 24.1 0.00 0.00 0.00 10 1026.2
20240527161321 25 231 6.4 24.1 0.00 0.00 0.00 10 1026.1
20240527160829 25 261 9.7 20.9 0.00 0.00 0.00 10 1026.2
20240527160331 25 232 4.8 19.3 0.00 0.00 0.00 9 1026.2
20240527155812 24 229 4.8 20.9 0.00 0.00 0.00 11 1026.1
20240527155321 25 322 9.7 20.9 0.00 0.00 0.00 10 1026.3
20240527154850 24 240 4.8 16.1 0.00 0.00 0.00 12 1026.0
20240527154311 24 268 3.2 11.3 0.00 0.00 0.00 13 1026.2
20240527153833 24 146 3.2 11.3 0.00 0.00 0.00 12 1026.1
20240527153323 24 240 4.8 9.7 0.00 0.00 0.00 12 1026.0